EW2804 Weather Reports


time (UTC)temp
F
wind
direction
speed
knots
gust
knots
rain 1hr
in
rain 24hr
in
rain mn
in
humidity
%
barometer
mb
20260831192410 99 113 1.7 6.1 0.00 0.00 0.00 31 1013.4
20260831191359 101 115 1.7 9.6 0.00 0.00 0.00 30 1013.4
20260831190325 99 171 2.6 9.6 0.00 0.00 0.00 33 1013.5
20260831185312 99 90 2.6 8.7 0.00 0.00 0.00 32 1013.6
20260831184244 97 138 1.7 8.7 0.00 0.00 0.00 36 1013.7
20260831182121 98 154 1.7 7.0 0.00 0.00 0.00 36 1014.0
20260831181142 98 142 1.7 6.1 0.00 0.00 0.00 35 1014.1
20260831180200 98 90 1.7 7.8 0.00 0.00 0.00 36 1014.4
20260831175130 97 124 2.6 7.8 0.00 0.00 0.00 36 1014.6
20260831174143 97 141 2.6 7.0 0.00 0.00 0.00 35 1014.6
20260831173106 96 199 2.6 7.0 0.00 0.00 0.00 37 1014.7
20260831172110 97 42 1.7 6.1 0.00 0.00 0.00 37 1014.8
20260831171127 96 251 1.7 6.1 0.00 0.00 0.00 37 1014.9
20260831170128 96 240 1.7 4.3 0.00 0.00 0.00 37 1015.0
20260831165124 96 196 1.7 5.2 0.00 0.00 0.00 37 1014.9
20260831162948 95 183 1.7 7.0 0.00 0.00 0.00 40 1015.0
20260831162008 94 237 1.7 7.0 0.00 0.00 0.00 41 1015.1
20260831160934 94 174 1.7 5.2 0.00 0.00 0.00 42 1015.1
20260831155933 94 157 0.9 7.8 0.00 0.00 0.00 42 1015.1
20260831154906 93 182 1.7 7.8 0.00 0.00 0.00 43 1015.2
20260831153902 93 157 0.9 5.2 0.00 0.00 0.00 44 1015.2
20260831151711 91 227 0.9 3.5 0.00 0.00 0.00 48 1014.9
20260831145448 89 148 0.9 3.5 0.00 0.00 0.00 50 1015.0
20260831144410 88 175 0.9 3.5 0.00 0.00 0.00 54 1015.0
20260831142247 87 224 0.9 5.2 0.00 0.00 0.00 57 1015.0
20260831140042 85 222 0.9 2.6 0.00 0.00 0.00 62 1014.9
20260831135039 83 194 0.0 2.6 0.00 0.00 0.00 67 1014.8
20260831134037 81 115 0.0 0.0 0.00 0.00 0.00 69 1014.6
20260831133007 79 181 0.0 1.7 0.00 0.00 0.00 74 1014.5
20260831130758 75 254 0.0 0.0 0.00 0.00 0.00 79 1014.2
20260831125736 74 254 0.0 0.0 0.00 0.00 0.00 79 1014.1
20260831124748 74 254 0.0 0.0 0.00 0.00 0.00 79 1013.9
20260831123727 74 24 0.0 0.0 0.00 0.00 0.00 79 1013.7
20260831122704 74 154 0.0 0.0 0.00 0.00 0.00 78 1013.6
20260831121656 74 154 0.0 0.0 0.00 0.00 0.00 78 1013.4
20260831120622 74 154 0.0 0.0 0.00 0.00 0.00 77 1013.3
20260831115632 74 154 0.0 0.0 0.00 0.00 0.00 76 1013.2
20260831114624 74 154 0.0 0.0 0.00 0.00 0.00 76 1013.0
20260831113629 74 154 0.0 0.0 0.00 0.00 0.00 75 1013.0
20260831112631 75 154 0.0 0.0 0.00 0.00 0.00 74 1012.9
20260831111610 75 154 0.0 0.0 0.00 0.00 0.00 73 1012.8
20260831110548 75 154 0.0 0.0 0.00 0.00 0.00 72 1012.7
20260831105541 76 154 0.0 0.0 0.00 0.00 0.00 72 1012.6
20260831104602 76 154 0.0 0.0 0.00 0.00 0.00 70 1012.7
20260831102441 78 154 0.0 0.0 0.00 0.00 0.00 67 1012.7
20260831100334 79 154 0.0 0.0 0.00 0.00 0.00 64 1012.5
20260831095348 80 154 0.0 0.0 0.00 0.00 0.00 64 1012.4
20260831094352 81 154 0.0 0.0 0.00 0.00 0.00 62 1012.4
20260831093331 81 154 0.0 0.0 0.00 0.00 0.00 61 1012.4
20260831092314 81 154 0.0 0.0 0.00 0.00 0.00 61 1012.4
20260831091314 82 154 0.0 0.0 0.00 0.00 0.00 59 1012.3
20260831090326 82 154 0.0 0.0 0.00 0.00 0.00 58 1012.3
20260831085312 83 154 0.0 0.0 0.00 0.00 0.00 57 1012.2
20260831084252 83 158 0.0 0.0 0.00 0.00 0.00 56 1012.2
20260831083251 83 153 0.0 0.9 0.00 0.00 0.00 56 1012.2
20260831082252 83 153 0.0 2.6 0.00 0.00 0.00 55 1012.3
20260831081222 83 142 0.0 0.9 0.00 0.00 0.00 56 1012.3
20260831080211 82 175 0.0 2.6 0.00 0.00 0.00 56 1012.2
20260831075141 81 92 0.0 4.3 0.00 0.00 0.00 58 1012.1
20260831073021 77 128 0.0 0.0 0.00 0.00 0.00 65 1011.9
20260831070825 77 128 0.0 0.0 0.00 0.00 0.00 68 1012.0
20260831065805 77 128 0.0 0.0 0.00 0.00 0.00 67 1012.0
20260831063636 77 128 0.0 0.0 0.00 0.00 0.00 66 1012.2
20260831061433 78 128 0.0 0.0 0.00 0.00 0.00 66 1012.2
20260831060410 78 128 0.0 0.0 0.00 0.00 0.00 66 1012.1
20260831055430 78 128 0.0 0.0 0.00 0.00 0.00 65 1012.1
20260831052213 79 128 0.0 0.0 0.00 0.00 0.00 64 1012.0
20260831051156 79 128 0.0 0.0 0.00 0.00 0.00 63 1011.9
20260831050157 80 128 0.0 0.0 0.00 0.00 0.00 63 1011.9
20260831045204 80 128 0.0 0.0 0.00 0.00 0.00 62 1011.8
20260831044137 81 128 0.0 0.0 0.00 0.00 0.00 62 1011.9
20260831043136 81 128 0.0 0.0 0.00 0.00 0.00 61 1011.9
20260831042155 82 128 0.0 0.0 0.00 0.00 0.00 59 1011.9
20260831040023 83 128 0.0 0.0 0.00 0.00 0.00 57 1011.8
20260831035019 83 128 0.0 0.0 0.00 0.00 0.00 56 1011.7
20260831034014 84 128 0.0 0.0 0.00 0.00 0.00 55 1011.7
20260831031847 85 128 0.0 0.0 0.00 0.00 0.00 54 1011.6
20260831030830 85 128 0.0 0.0 0.00 0.00 0.00 53 1011.5
20260831025815 85 128 0.0 0.0 0.00 0.00 0.00 52 1011.4
20260831024741 85 128 0.0 0.0 0.00 0.00 0.00 50 1011.3
20260831021515 87 128 0.0 0.0 0.00 0.00 0.00 45 1011.0
20260831015421 87 128 0.0 0.0 0.00 0.00 0.00 45 1010.6
20260831014422 88 128 0.0 0.0 0.00 0.00 0.00 43 1010.4
20260831013409 90 128 0.0 0.0 0.00 0.00 0.00 40 1010.4
20260831011221 94 128 0.0 0.0 0.00 0.00 0.00 36 1010.1
20260831010223 95 128 0.0 0.0 0.00 0.00 0.00 34 1010.1
20260831005211 96 128 0.0 0.0 0.00 0.00 0.00 31 1010.1
20260831003012 98 139 0.9 3.5 0.00 0.00 0.00 29 1010.1
20260831002011 98 200 0.9 5.2 0.00 0.00 0.00 28 1010.1
20260831001032 99 161 0.9 5.2 0.00 0.00 0.00 27 1010.0
20260830235957 99 157 0.9 3.5 0.00 0.00 0.00 27 1010.1
20260830235015 99 114 0.0 1.7 0.00 0.00 0.00 27 1010.1
20260830232843 100 222 1.7 5.2 0.00 0.00 0.00 28 1010.2
20260830231832 100 150 1.7 6.1 0.00 0.00 0.00 25 1010.2
20260830225622 100 241 0.9 5.2 0.00 0.00 0.00 28 1010.2
20260830224633 100 192 1.7 5.2 0.00 0.00 0.00 26 1010.3
20260830221324 100 90 1.7 7.0 0.00 0.00 0.00 27 1010.5
20260830220327 101 112 1.7 7.0 0.00 0.00 0.00 28 1010.5
20260830215331 101 202 2.6 6.1 0.00 0.00 0.00 28 1010.4
20260830213159 101 153 1.7 9.6 0.00 0.00 0.00 28 1010.6
20260830212124 101 185 3.5 9.6 0.00 0.00 0.00 27 1010.6
20260830204824 101 154 1.7 7.0 0.00 0.00 0.00 26 1011.1
20260830203843 101 215 1.7 7.0 0.00 0.00 0.00 27 1011.2
20260830202849 102 115 1.7 7.0 0.00 0.00 0.00 27 1011.3
20260830201819 102 266 1.7 5.2 0.00 0.00 0.00 26 1011.4
20260830200758 102 161 1.7 6.1 0.00 0.00 0.00 29 1011.5
20260830195803 101 227 2.6 8.7 0.00 0.00 0.00 29 1011.7
20260830194741 101 120 2.6 8.7 0.00 0.00 0.00 28 1011.8